Theta_e
343 346 348 348 349 349 348 349 349 349 349 349 348 348 347 346 345 344 344 343 342 340 340 341 341 341 344 343 343 343 343 342 342 341 341 343 343 344 344 343 343 344 343 342 340 338 336 334 333 332 331 334
341 343 344 344 346 347 347 347 347 347 347 347 347 346 346 345 345 344 344 342 340 339 339 339 339 340 342 342 342 343 342 342 341 341 341 343 343 343 343 343 343 342 341 340 339 337 335 334 332 331 330 333
341 341 342 341 344 345 345 344 344 343 345 345 344 344 344 345 344 343 342 341 340 338 338 338 338 337 338 341 342 342 342 342 341 341 341 341 342 342 341 340 340 339 339 337 336 335 334 331 330 328 328 332
341 339 338 339 341 342 342 342 341 340 341 342 341 341 341 342 342 341 340 340 338 337 337 337 334 336 336 340 342 341 341 341 341 341 340 340 340 340 339 338 337 336 335 334 333 331 329 327 325 326 328 330
340 340 337 337 338 339 339 340 339 337 337 338 337 336 337 340 339 337 336 337 335 337 335 333 332 334 334 337 340 341 342 341 341 341 340 340 340 339 338 336 335 334 332 332 329 326 325 324 322 323 324 325
340 340 338 338 339 340 339 338 337 337 339 342 339 334 338 340 339 336 334 333 338 333 333 331 331 331 332 334 339 341 341 341 341 340 340 340 340 339 337 336 329 328 332 331 328 326 323 320 321 322 322 323
338 339 339 338 339 338 337 342 341 338 340 338 338 337 339 340 338 335 334 333 334 333 329 331 329 330 331 332 335 337 338 338 340 340 339 340 339 338 336 328 323 323 322 321 328 324 319 317 318 319 321 322
337 338 340 341 341 340 340 342 341 338 338 338 337 337 338 338 338 335 333 337 337 337 330 328 327 328 329 330 332 334 335 335 335 336 338 338 338 336 331 323 321 321 320 320 320 320 317 315 317 318 319 320
334 335 339 341 342 343 343 343 343 341 341 341 338 337 337 337 338 336 334 333 333 331 328 326 326 327 327 328 326 330 327 328 329 330 324 326 332 327 325 320 319 319 319 318 318 318 316 317 316 317 318 320
335 336 336 338 341 343 343 343 343 342 342 341 341 339 337 337 337 336 335 333 332 329 328 327 326 326 326 325 325 326 325 324 325 323 322 324 325 324 322 321 318 317 320 321 319 318 316 317 316 317 316 318
335 334 336 337 340 341 341 342 342 342 342 342 342 340 338 337 338 336 335 334 333 330 329 327 326 325 326 325 325 325 325 324 323 322 321 321 323 320 318 318 316 316 317 318 320 319 317 317 318 317 316 315
333 334 334 334 336 339 339 340 341 341 342 342 342 341 340 337 338 337 335 335 333 331 330 328 327 326 326 326 325 324 324 324 323 322 322 321 319 320 319 319 318 318 318 317 318 317 317 316 318 318 316 315
333 335 334 333 334 336 336 339 340 340 341 341 341 342 341 338 336 337 336 336 335 333 330 330 328 327 326 326 326 325 324 323 323 322 322 322 322 322 321 320 320 318 319 318 318 319 317 316 316 315 317 316
333 333 333 332 332 334 333 337 338 339 339 339 339 340 341 340 338 336 335 336 337 335 332 331 330 328 327 326 326 325 324 324 324 323 323 323 323 322 321 321 322 320 319 319 318 316 318 316 319 319 318 318
333 332 332 332 332 332 333 335 336 337 338 338 337 338 339 339 339 337 336 336 335 336 335 332 331 330 329 328 327 326 324 325 324 324 324 324 324 323 322 322 323 321 320 320 319 317 317 318 318 319 320 319
333 333 332 331 332 333 333 334 335 335 336 335 337 338 337 338 338 337 338 337 335 336 335 334 332 331 330 329 329 328 325 325 326 326 325 324 325 325 324 323 322 322 321 320 321 320 319 320 319 319 320 320
331 332 333 332 331 333 334 334 334 334 334 334 335 337 339 338 337 335 334 336 336 335 336 335 333 332 330 331 331 330 327 325 325 325 325 324 325 324 323 321 321 322 321 321 321 321 321 322 321 321 321 322
330 330 331 331 331 330 334 334 335 334 335 335 335 336 338 339 338 335 334 335 334 334 335 335 334 332 331 331 332 332 330 328 327 326 325 325 324 323 322 321 321 320 320 319 323 324 325 324 325 324 323 322
329 330 331 331 331 331 332 334 336 337 337 336 336 337 337 338 338 337 336 336 334 332 334 334 334 333 334 334 333 333 333 331 329 327 325 324 324 323 322 321 319 320 320 320 322 324 325 324 324 322 325 324
330 330 331 330 330 331 331 331 332 334 336 336 337 337 337 337 337 336 336 336 336 334 333 333 333 334 335 334 333 333 333 331 329 327 326 325 326 323 322 320 319 315 318 317 321 321 323 324 323 323 323 324
330 330 330 330 330 331 330 330 331 332 332 333 332 334 335 336 336 335 335 335 335 334 333 333 333 330 332 333 333 333 332 330 329 327 326 324 325 325 322 321 320 318 319 318 318 320 319 320 321 321 323 324
329 329 329 330 330 329 329 329 331 331 331 331 331 330 331 333 334 333 334 334 334 333 333 333 333 332 332 332 332 332 331 330 328 327 326 324 323 324 323 322 321 320 320 319 318 318 319 320 320 321 322 323
326 327 327 328 329 327 327 328 329 331 330 331 330 329 328 327 331 332 333 333 333 332 331 332 332 332 332 332 332 331 330 328 326 326 326 325 323 322 323 322 321 320 320 319 318 319 319 319 320 321 321 322
327 327 327 326 326 327 327 328 328 329 330 331 331 330 329 329 329 329 331 332 332 331 330 331 331 331 331 330 330 329 328 327 326 326 325 324 323 321 319 317 320 319 318 317 317 317 318 319 319 320 320 321
326 325 326 326 326 326 327 326 326 327 329 329 330 330 330 329 329 329 328 329 331 330 329 330 330 330 329 330 329 328 328 328 328 328 327 325 323 322 320 319 316 318 318 315 313 312 314 317 319 320 320 321
326 326 326 326 326 326 326 326 326 326 326 326 322 322 324 326 327 328 327 327 329 329 329 328 328 329 329 329 329 329 328 328 326 326 327 325 323 322 322 321 320 319 318 312 314 310 309 310 316 318 320 321
325 324 325 325 321 325 318 315 319 322 321 320 320 318 319 321 322 322 321 322 324 327 327 328 329 329 329 329 329 327 327 327 326 327 327 325 325 323 322 322 320 320 320 315 310 312 312 309 308 304 309 316
322 321 322 315 316 317 317 316 312 314 316 317 316 316 315 317 320 321 322 320 321 322 325 327 328 329 328 328 328 328 326 326 327 327 326 325 325 325 321 321 319 320 320 318 317 312 314 308 305 307 305 305
319 318 316 315 315 314 314 314 314 315 315 316 316 314 314 316 316 317 320 318 319 321 321 321 325 327 328 326 327 328 327 327 328 328 328 327 326 324 324 320 319 320 321 321 321 316 311 311 311 312 307 307
319 320 319 317 317 315 314 314 313 315 317 315 316 317 315 314 315 316 316 317 318 318 318 317 316 318 320 321 321 322 322 324 322 323 323 324 324 322 322 321 319 316 318 321 321 323 322 318 313 309 310 309
318 319 318 318 319 318 317 316 314 314 314 316 314 311 312 312 312 314 315 315 316 316 315 315 315 314 314 314 315 316 319 319 319 319 320 320 321 321 319 319 317 316 315 315 316 320 320 320 319 318 315 311
Wind_Speed
12 12 13 13 14 14 14 15 15 16 15 13 12 12 13 13 12 12 10 9 9 9 8 8 7 9 11 12 12 11 11 10 9 8 7 7 7 8 7 9 10 11 8 7 8 8 6 5 5 5 4 3
11 11 11 12 13 14 13 14 14 16 15 12 11 11 11 12 12 11 10 10 10 9 9 8 7 7 10 12 11 12 12 11 10 9 9 8 8 8 8 9 9 9 9 8 6 6 5 3 3 3 2 1
7 10 10 11 11 12 13 12 12 14 15 14 12 11 10 11 11 11 12 11 10 10 10 8 7 7 8 10 11 12 12 11 10 9 9 9 8 9 9 8 8 7 7 7 6 5 4 3 3 3 1 1
5 8 10 8 10 12 12 12 11 13 14 14 13 12 11 11 9 9 8 12 9 10 11 10 7 7 7 10 11 11 11 11 11 11 10 9 9 8 7 6 7 7 5 6 6 6 4 2 2 1 1 2
6 7 10 10 11 11 12 12 12 11 13 12 11 10 10 10 7 6 4 6 6 9 7 9 9 8 7 9 10 10 9 8 9 11 11 10 11 10 10 8 7 6 6 5 6 5 4 3 1 1 1 1
6 6 9 7 7 8 9 10 10 8 7 8 7 10 7 5 6 6 5 4 6 5 6 8 10 8 7 8 10 9 8 8 8 11 11 11 11 10 9 9 5 4 4 4 5 5 5 2 1 1 2 2
6 7 6 7 7 6 7 9 9 6 7 5 6 7 7 5 4 6 6 5 5 5 7 7 10 9 8 7 9 9 8 8 8 10 12 13 10 8 7 3 2 3 2 0 1 2 1 1 2 2 2 2
5 5 6 6 6 6 7 6 6 6 5 5 6 7 7 5 6 5 5 7 9 9 5 6 9 9 8 7 7 10 7 8 8 7 6 7 8 6 3 2 2 2 1 1 0 1 2 3 2 2 3 2
6 5 6 6 6 6 6 6 6 6 6 6 6 6 6 6 5 6 5 5 6 5 5 5 5 5 5 5 4 7 5 5 5 5 3 2 5 4 4 2 2 2 2 2 2 3 4 4 2 2 2 3
8 8 6 6 7 6 6 7 6 6 6 6 7 6 5 6 5 6 6 6 5 5 6 6 5 6 6 5 5 4 5 5 5 5 4 5 4 4 3 4 3 3 3 4 3 4 4 4 3 3 3 3
7 8 8 7 6 8 8 6 7 7 7 7 7 8 7 6 6 6 6 5 7 6 5 5 5 5 5 6 6 5 6 5 5 6 5 5 5 3 3 3 3 3 3 3 4 4 4 3 4 4 3 2
7 7 7 7 7 7 8 7 7 7 7 7 8 8 8 7 6 7 7 8 7 7 7 6 5 5 5 5 5 4 5 5 5 5 5 5 3 4 3 3 4 4 4 4 4 4 4 4 5 4 3 3
6 7 7 7 7 8 7 7 7 7 7 7 7 9 9 8 7 6 7 8 8 6 7 7 7 6 6 6 6 6 5 6 6 5 5 5 5 5 5 4 4 4 5 5 5 5 4 4 4 3 4 3
4 5 8 8 9 8 8 8 7 7 7 7 7 7 9 10 8 8 7 6 8 9 9 8 7 7 6 7 6 6 7 6 6 6 5 5 5 5 5 5 5 5 5 6 4 5 5 4 5 5 4 4
5 5 4 7 8 7 8 8 7 7 8 7 7 7 7 8 9 8 8 8 6 7 8 8 8 7 7 7 7 7 7 6 6 5 6 6 6 6 5 6 5 5 6 6 4 3 4 5 3 4 4 4
1 3 5 5 5 7 7 7 7 7 7 8 8 7 7 7 7 8 8 9 8 8 7 8 9 9 8 8 7 7 6 6 6 6 6 5 5 6 6 6 5 6 6 6 6 4 4 4 5 5 5 5
4 3 0 2 5 5 7 7 7 7 7 7 7 7 8 8 8 7 6 6 9 10 8 9 10 9 7 7 7 7 7 7 5 5 5 5 5 5 5 5 5 5 6 6 5 4 5 5 4 5 5 5
6 6 5 2 1 3 5 6 8 8 8 8 7 8 9 9 9 8 7 7 5 4 6 7 9 10 9 8 7 7 7 7 6 6 6 7 6 6 6 6 6 6 5 4 4 5 5 5 5 4 5 5
9 5 6 4 2 3 1 5 7 8 8 8 8 9 9 10 10 10 10 8 8 9 8 7 5 6 8 8 7 7 7 8 7 7 7 6 7 6 6 6 5 5 6 5 5 5 5 5 4 3 5 5
5 8 6 5 6 6 3 1 2 4 7 8 8 8 8 9 10 10 10 10 10 9 8 7 8 8 7 8 7 7 7 7 8 8 7 7 7 7 6 6 5 3 5 4 5 4 4 5 4 6 5 6
4 4 3 5 5 6 6 3 2 1 2 1 5 6 8 8 9 9 9 10 10 9 9 8 8 7 8 7 8 8 7 7 7 7 7 6 6 7 6 6 6 5 5 4 4 4 4 5 5 5 6 6
5 4 3 3 5 3 1 2 3 2 2 0 1 1 4 5 8 8 8 9 9 8 9 8 8 8 10 10 8 8 7 8 6 7 7 7 5 6 6 6 7 6 5 4 4 5 5 6 5 5 5 6
2 2 2 1 4 3 3 4 7 5 4 3 2 1 1 1 5 7 9 9 10 9 8 8 8 8 9 9 9 9 9 7 6 6 6 8 7 4 6 6 6 6 5 4 4 5 6 4 5 5 5 5
2 1 2 2 1 3 5 5 4 4 5 4 3 3 2 1 2 3 5 7 9 10 9 9 9 9 9 9 9 10 10 8 8 10 9 9 9 6 2 1 4 4 4 3 4 5 5 5 5 5 5 5
3 2 2 2 4 5 5 4 4 4 6 5 6 6 4 4 3 4 3 5 7 8 9 8 8 8 8 9 9 9 11 11 11 11 10 9 6 8 6 5 3 4 4 4 3 3 4 6 5 7 6 8
4 3 3 2 3 4 3 3 4 6 5 7 3 3 4 5 5 4 4 3 4 6 7 8 8 9 10 10 10 10 10 10 9 9 8 7 6 5 9 7 7 5 6 3 6 3 3 4 5 6 6 7
4 4 4 5 3 3 2 2 2 2 1 2 6 5 5 5 5 4 1 2 2 3 3 5 8 10 10 10 10 9 9 9 9 9 10 9 9 7 5 5 5 7 9 6 3 2 1 3 3 4 2 3
4 2 1 1 1 1 1 1 2 1 1 2 2 4 4 4 6 7 7 6 4 2 3 4 7 7 9 9 9 11 10 10 10 9 9 9 8 7 6 6 6 5 8 5 6 1 4 3 2 4 2 3
3 1 1 2 3 2 2 2 1 0 1 3 2 2 4 7 4 4 6 5 6 6 6 2 5 7 8 5 4 7 9 10 10 9 9 10 8 7 8 7 4 2 4 5 3 4 3 2 2 3 1 2
2 3 4 3 3 2 1 2 2 5 6 5 6 6 1 2 1 2 3 3 5 6 6 7 3 2 1 4 3 1 1 6 5 7 8 8 8 7 4 6 3 3 4 2 2 0 1 1 1 1 1 2
1 2 2 4 6 5 5 5 4 2 1 4 3 1 1 3 0 0 2 3 3 6 6 7 6 7 6 6 5 2 3 2 3 2 4 5 6 6 5 5 4 6 4 5 4 3 3 1 0 2 2 2
Wind_Direction
176 176 182 179 177 174 171 166 160 155 158 162 164 163 157 157 158 159 155 153 154 148 147 149 148 151 149 152 149 146 140 140 143 147 152 154 146 145 144 140 146 133 120 93 76 74 71 68 62 56 48 52
163 179 189 182 178 178 175 170 168 157 156 162 165 166 162 158 159 157 152 155 155 151 149 152 153 151 151 158 157 153 150 150 151 153 155 146 141 140 139 132 122 122 112 103 107 104 105 104 95 73 69 89
175 175 190 181 180 177 175 174 172 163 157 161 163 165 167 163 161 159 158 159 159 153 151 153 154 153 155 151 156 158 157 155 157 158 155 142 138 133 129 124 112 101 106 118 123 124 132 109 80 67 108 129
167 181 182 185 183 176 172 175 186 169 160 162 162 162 168 165 161 161 163 160 159 157 153 153 155 161 158 145 155 163 162 162 162 158 157 154 150 147 138 125 112 117 133 133 134 136 136 123 106 139 153 167
171 181 180 176 187 191 174 172 179 178 162 157 155 159 170 164 156 156 167 161 158 160 156 155 158 163 167 152 155 160 164 167 166 161 161 160 159 151 144 139 138 143 153 152 141 141 148 146 146 199 225 223
173 177 169 186 180 175 190 172 169 171 169 162 155 157 168 170 164 156 163 174 162 161 161 158 158 161 168 159 158 160 162 170 168 167 163 165 166 156 151 147 142 153 166 171 160 159 163 150 210 218 228 237
174 171 169 178 174 168 208 176 171 173 172 164 162 163 177 176 173 160 160 176 174 162 170 163 158 161 166 159 152 140 139 157 170 175 174 173 169 156 147 123 140 154 173 245 176 223 228 218 206 221 252 265
170 173 172 174 173 171 188 181 166 168 173 166 166 172 174 176 166 165 162 177 182 160 154 164 157 159 160 158 149 142 136 144 146 155 170 171 161 151 145 151 160 174 181 210 209 246 263 257 224 198 219 247
177 177 177 174 177 178 177 184 173 173 176 174 171 170 170 176 165 162 160 176 173 157 154 160 157 155 160 161 159 146 145 148 156 147 153 156 148 156 165 170 196 190 197 228 237 244 256 263 262 240 236 240
184 178 179 179 180 178 181 183 177 178 179 180 181 176 177 177 172 167 171 175 180 166 163 167 170 167 162 166 172 162 154 160 155 156 164 170 169 186 181 196 195 211 199 211 223 238 246 249 255 242 241 229
173 181 183 182 182 181 184 186 180 183 183 182 176 180 182 182 184 178 179 183 181 172 165 177 174 169 168 170 175 177 163 170 169 166 173 182 195 186 191 219 226 221 233 221 219 226 235 233 233 226 221 223
179 182 182 179 179 184 189 187 190 187 187 182 183 179 182 188 190 184 183 185 190 178 172 185 178 170 169 169 178 173 171 173 182 178 178 184 189 189 203 214 221 223 231 235 217 210 220 218 220 224 237 243
183 181 182 177 179 187 185 194 195 192 190 190 185 185 183 183 189 193 187 187 190 174 183 180 181 176 179 175 178 170 180 182 185 188 180 185 193 191 201 210 221 216 222 220 201 178 197 208 218 237 248 250
190 204 182 184 185 186 181 195 196 192 194 199 193 187 185 186 189 190 188 192 188 184 187 182 186 184 183 182 178 175 182 189 183 190 188 184 191 193 202 208 222 202 219 221 212 187 192 208 213 225 237 250
220 207 236 192 186 182 187 189 192 194 195 197 201 198 189 185 189 188 192 196 192 198 187 183 183 194 187 186 186 184 188 183 189 188 196 189 188 196 196 213 211 201 204 214 220 214 199 219 222 237 240 247
121 168 219 226 198 188 189 182 190 195 195 198 199 193 193 197 191 188 196 195 192 195 189 184 189 195 193 192 184 185 188 188 192 191 205 202 192 199 191 204 203 199 191 201 209 203 213 221 218 233 233 234
237 207 343 257 219 205 188 184 187 195 201 202 201 197 198 200 196 187 176 191 195 194 192 192 192 188 194 201 187 184 190 192 194 194 208 216 202 196 197 191 206 198 205 193 208 202 221 215 224 231 226 229
236 225 210 187 311 220 200 196 191 198 199 201 204 202 203 203 199 191 193 188 168 181 194 199 198 190 187 201 184 184 183 193 192 195 198 217 198 197 183 190 195 187 205 220 212 207 219 212 219 233 246 241
204 192 212 189 166 343 148 218 209 200 199 200 202 202 205 203 205 201 195 194 177 188 201 201 196 192 200 189 183 182 189 192 191 189 194 186 192 180 180 176 180 178 194 199 216 217 210 216 222 237 248 255
188 197 198 168 190 194 206 182 245 208 201 200 199 199 200 198 199 198 195 194 190 189 197 190 208 198 189 188 188 187 188 185 185 189 183 187 173 165 172 162 187 173 182 199 212 231 230 233 228 235 248 257
220 224 189 175 217 217 185 182 280 34 61 161 203 205 201 198 197 197 195 192 191 191 192 195 203 186 195 195 192 192 187 191 187 180 183 186 195 173 170 180 181 193 191 208 232 243 246 245 242 243 247 254
212 227 221 164 189 244 131 166 226 221 200 150 139 191 227 214 201 199 197 195 195 199 197 197 200 192 196 193 193 192 189 197 187 185 179 182 195 185 170 186 189 198 200 202 218 230 233 243 238 242 244 250
211 247 288 115 152 170 202 191 204 204 217 205 160 176 189 225 223 215 204 197 195 199 196 194 196 199 194 190 190 189 192 193 187 185 185 184 191 199 195 185 192 193 191 212 233 241 245 249 250 250 249 255
216 206 200 218 226 208 207 204 220 191 224 227 233 219 209 261 285 213 216 216 201 198 197 195 195 196 187 190 185 187 190 192 189 190 189 198 186 183 188 183 182 180 180 229 242 255 278 262 259 265 259 256
177 180 206 214 213 226 229 209 190 214 206 203 206 231 234 224 236 263 227 213 216 211 202 201 195 191 189 187 186 187 194 193 193 193 192 188 175 172 182 212 195 201 164 190 274 279 276 282 255 251 250 251
188 174 177 186 207 212 213 216 202 211 212 189 187 162 199 228 225 242 257 230 214 223 212 198 192 191 190 186 189 193 194 191 190 187 186 172 183 192 184 200 189 184 129 187 212 231 311 304 292 248 234 245
212 196 196 198 205 210 238 286 267 288 265 242 168 171 178 194 205 179 211 324 304 235 242 237 203 192 189 187 185 186 190 188 189 188 187 184 187 191 202 198 186 175 183 188 151 130 73 292 339 333 322 273
257 255 265 55 97 56 113 240 329 28 51 121 121 178 172 193 190 182 195 191 181 174 253 250 251 219 183 188 187 184 184 187 190 185 186 186 194 181 189 199 200 181 194 161 137 175 196 219 152 306 310 323
238 130 88 84 51 54 77 51 52 35 261 219 219 173 187 198 193 192 193 175 171 173 180 218 254 236 193 177 198 180 183 186 189 185 183 182 184 189 193 194 161 137 184 203 197 153 124 193 216 214 260 358
210 215 177 166 164 158 205 187 182 208 210 215 213 217 171 122 159 150 169 196 165 159 147 129 106 354 4 102 137 134 179 167 161 180 173 179 171 177 183 166 158 110 32 98 86 105 174 135 198 168 237 76
211 240 222 207 202 202 206 214 228 218 266 219 267 350 188 193 278 341 154 168 178 138 125 115 109 105 88 57 43 54 98 96 141 167 156 138 151 168 155 150 140 129 120 77 43 45 37 36 49 149 137 208